When you browse on this site, cookies collect data to enhance your experience and personalize the content and advertising you see.
Visit our Privacy Policy to learn more. By continuing to use the site, you agree to this use of cookies and data.
  • In Hungary
  • List of Countries
  • For 7 days
  • Water Temperature
  • Weather Map
  • News
  • Weather Widgets
  • user-avatar
    Login

    Hourly Weather Dvoynoy

    Today, 21 October, Monday

    Time Temperature Precipitation Wind Pressure Humidity
    00:00 +13°C° 0 mm 4 mps 761 mmHg 63%
    01:00 +13°C° 0 mm 4 mps 761 mmHg 65%
    02:00 +12°C° 0 mm 4 mps 761 mmHg 67%
    03:00 +12°C° 0 mm 3 mps 761 mmHg 71%
    04:00 +12°C° 0 mm 3 mps 761 mmHg 74%
    05:00 +11°C° 0 mm 4 mps 762 mmHg 76%
    06:00 +11°C° 0 mm 4 mps 762 mmHg 79%
    07:00 +12°C° 0 mm 4 mps 762 mmHg 73%
    08:00 +14°C° 0 mm 5 mps 762 mmHg 67%
    09:00 +15°C° 0 mm 6 mps 763 mmHg 61%
    10:00 +16°C° 0 mm 6 mps 762 mmHg 57%
    11:00 +19°C° 0 mm 6 mps 762 mmHg 52%
    12:00 +20°C° 0 mm 6 mps 762 mmHg 48%
    13:00 +20°C° 0 mm 6 mps 762 mmHg 46%
    14:00 +21°C° 0 mm 5 mps 762 mmHg 45%
    15:00 +21°C° 0 mm 5 mps 761 mmHg 44%
    16:00 +19°C° 0 mm 5 mps 761 mmHg 48%
    17:00 +18°C° 0 mm 4 mps 761 mmHg 53%
    18:00 +15°C° 0 mm 4 mps 761 mmHg 57%
    19:00 +15°C° 0 mm 4 mps 761 mmHg 58%
    20:00 +14°C° 0 mm 3 mps 761 mmHg 60%
    21:00 +13°C° 0 mm 3 mps 761 mmHg 61%
    22:00 +13°C° 0 mm 3 mps 761 mmHg 63%
    23:00 +12°C° 0 mm 3 mps 761 mmHg 65%

    Tomorrow, 22 October, Tuesday

    Time Temperature Precipitation Wind Pressure Humidity
    00:00 +12°C° 0 mm 3 mps 761 mmHg 67%
    01:00 +11°C° 0 mm 3 mps 761 mmHg 69%
    02:00 +11°C° 0 mm 3 mps 761 mmHg 72%
    03:00 +11°C° 0 mm 3 mps 761 mmHg 74%
    04:00 +10°C° 0 mm 3 mps 761 mmHg 76%
    05:00 +10°C° 0 mm 3 mps 761 mmHg 78%
    06:00 +9°C° 0 mm 3 mps 761 mmHg 80%
    07:00 +10°C° 0 mm 3 mps 761 mmHg 76%
    08:00 +11°C° 0 mm 3 mps 761 mmHg 72%
    09:00 +12°C° 0 mm 3 mps 761 mmHg 68%
    10:00 +14°C° 0 mm 4 mps 761 mmHg 61%
    11:00 +17°C° 0 mm 4 mps 761 mmHg 53%
    12:00 +19°C° 0 mm 4 mps 761 mmHg 45%
    13:00 +19°C° 0 mm 4 mps 761 mmHg 43%
    14:00 +20°C° 0 mm 4 mps 761 mmHg 42%
    15:00 +20°C° 0 mm 4 mps 760 mmHg 40%
    16:00 +18°C° 0 mm 3 mps 760 mmHg 45%
    17:00 +17°C° 0 mm 3 mps 760 mmHg 51%
    18:00 +14°C° 0 mm 3 mps 760 mmHg 56%
    19:00 +14°C° 0 mm 3 mps 761 mmHg 58%
    20:00 +13°C° 0 mm 3 mps 761 mmHg 60%
    21:00 +13°C° 0 mm 3 mps 761 mmHg 61%
    22:00 +13°C° 0 mm 2 mps 760 mmHg 63%
    23:00 +13°C° 0 mm 2 mps 760 mmHg 64%

    Day after tomorrow, 23 October, Wednesday

    Time Temperature Precipitation Wind Pressure Humidity
    00:00 +12°C° 0 mm 2 mps 760 mmHg 66%
    01:00 +12°C° 0 mm 2 mps 760 mmHg 67%
    02:00 +12°C° 0 mm 2 mps 760 mmHg 68%
    03:00 +12°C° 0 mm 2 mps 761 mmHg 69%
    04:00 +10°C° 0 mm 2 mps 761 mmHg 70%
    05:00 +10°C° 0 mm 2 mps 761 mmHg 71%
    06:00 +10°C° 0 mm 2 mps 761 mmHg 71%
    07:00 +12°C° 0 mm 2 mps 761 mmHg 67%
    08:00 +13°C° 0 mm 2 mps 761 mmHg 62%
    09:00 +14°C° 0 mm 2 mps 761 mmHg 57%
    10:00 +16°C° 0 mm 3 mps 761 mmHg 52%
    11:00 +17°C° 0 mm 3 mps 761 mmHg 46%
    12:00 +19°C° 0 mm 3 mps 760 mmHg 41%
    13:00 +19°C° 0 mm 3 mps 760 mmHg 39%
    14:00 +19°C° 0 mm 3 mps 760 mmHg 38%
    15:00 +20°C° 0 mm 3 mps 760 mmHg 37%
    16:00 +18°C° 0 mm 3 mps 760 mmHg 41%
    17:00 +17°C° 0 mm 3 mps 760 mmHg 45%
    18:00 +14°C° 0 mm 3 mps 760 mmHg 50%
    19:00 +14°C° 0 mm 3 mps 760 mmHg 51%
    20:00 +13°C° 0 mm 3 mps 760 mmHg 52%
    21:00 +13°C° 0 mm 3 mps 760 mmHg 53%
    22:00 +12°C° 0 mm 3 mps 760 mmHg 53%
    23:00 +12°C° 0 mm 3 mps 760 mmHg 53%

    24 October, Thursday

    Time Temperature Precipitation Wind Pressure Humidity
    00:00 +12°C° 0 mm 2 mps 760 mmHg 53%
    01:00 +12°C° 0 mm 2 mps 760 mmHg 55%
    02:00 +12°C° 0 mm 2 mps 760 mmHg 56%
    03:00 +10°C° 0 mm 3 mps 760 mmHg 57%
    04:00 +10°C° 0 mm 3 mps 760 mmHg 59%
    05:00 +10°C° 0 mm 3 mps 760 mmHg 60%
    06:00 +9°C° 0 mm 3 mps 760 mmHg 62%
    07:00 +10°C° 0 mm 3 mps 760 mmHg 59%
    08:00 +12°C° 0 mm 3 mps 760 mmHg 56%
    09:00 +13°C° 0 mm 3 mps 760 mmHg 53%
    10:00 +14°C° 0 mm 4 mps 760 mmHg 47%
    11:00 +17°C° 0 mm 4 mps 760 mmHg 41%
    12:00 +19°C° 0 mm 5 mps 759 mmHg 36%
    13:00 +19°C° 0 mm 5 mps 759 mmHg 35%
    14:00 +19°C° 0 mm 4 mps 759 mmHg 34%
    15:00 +19°C° 0 mm 4 mps 759 mmHg 34%
    16:00 +18°C° 0 mm 4 mps 758 mmHg 39%
    17:00 +15°C° 0 mm 4 mps 758 mmHg 44%
    18:00 +14°C° 0 mm 3 mps 758 mmHg 49%
    19:00 +13°C° 0 mm 3 mps 758 mmHg 51%
    20:00 +12°C° 0 mm 3 mps 759 mmHg 53%
    21:00 +12°C° 0 mm 3 mps 759 mmHg 55%
    22:00 +11°C° 0 mm 3 mps 759 mmHg 57%
    23:00 +11°C° 0 mm 3 mps 759 mmHg 59%

    25 October, Friday

    Time Temperature Precipitation Wind Pressure Humidity
    00:00 +11°C° 0 mm 3 mps 758 mmHg 61%
    01:00 +10°C° 0 mm 3 mps 758 mmHg 63%
    02:00 +10°C° 0 mm 3 mps 758 mmHg 64%
    03:00 +10°C° 0 mm 3 mps 758 mmHg 66%
    04:00 +9°C° 0 mm 3 mps 758 mmHg 69%
    05:00 +9°C° 0 mm 3 mps 758 mmHg 72%
    06:00 +9°C° 0 mm 3 mps 758 mmHg 74%
    07:00 +10°C° 0 mm 3 mps 759 mmHg 72%
    08:00 +11°C° 0 mm 3 mps 759 mmHg 69%
    09:00 +12°C° 0 mm 3 mps 759 mmHg 67%
    10:00 +14°C° 0 mm 4 mps 759 mmHg 60%
    11:00 +17°C° 0 mm 4 mps 759 mmHg 53%
    12:00 +19°C° 0 mm 4 mps 759 mmHg 46%
    13:00 +19°C° 0 mm 4 mps 759 mmHg 43%
    14:00 +19°C° 0 mm 4 mps 759 mmHg 41%
    15:00 +20°C° 0 mm 4 mps 758 mmHg 38%
    16:00 +18°C° 0 mm 4 mps 759 mmHg 42%
    17:00 +17°C° 0 mm 3 mps 759 mmHg 46%
    18:00 +14°C° 0 mm 3 mps 759 mmHg 49%
    19:00 +13°C° 0 mm 3 mps 759 mmHg 50%
    20:00 +13°C° 0 mm 3 mps 759 mmHg 51%
    21:00 +12°C° 0 mm 3 mps 759 mmHg 52%
    22:00 +12°C° 0 mm 3 mps 759 mmHg 54%
    23:00 +12°C° 0 mm 3 mps 759 mmHg 55%

    26 October, Saturday

    Time Temperature Precipitation Wind Pressure Humidity
    00:00 +11°C° 0 mm 3 mps 759 mmHg 56%
    01:00 +11°C° 0 mm 3 mps 759 mmHg 57%
    02:00 +11°C° 0 mm 3 mps 759 mmHg 58%
    03:00 +10°C° 0 mm 3 mps 759 mmHg 59%
    04:00 +10°C° 0 mm 3 mps 759 mmHg 60%
    05:00 +10°C° 0 mm 3 mps 760 mmHg 62%
    06:00 +10°C° 0 mm 3 mps 760 mmHg 63%
    07:00 +11°C° 0 mm 3 mps 760 mmHg 64%
    08:00 +12°C° 0 mm 3 mps 760 mmHg 65%
    09:00 +14°C° 0 mm 4 mps 760 mmHg 66%
    10:00 +15°C° 0 mm 4 mps 760 mmHg 63%
    11:00 +18°C° 0 mm 4 mps 760 mmHg 61%
    12:00 +20°C° 0 mm 4 mps 760 mmHg 58%
    13:00 +20°C° 0 mm 4 mps 760 mmHg 57%
    14:00 +20°C° 0 mm 4 mps 759 mmHg 56%
    15:00 +21°C° 0 mm 4 mps 759 mmHg 56%
    16:00 +19°C° 0 mm 4 mps 759 mmHg 60%
    17:00 +18°C° 0 mm 3 mps 759 mmHg 65%
    18:00 +17°C° 0 mm 3 mps 759 mmHg 69%
    19:00 +16°C° 0 mm 2 mps 759 mmHg 71%
    20:00 +16°C° 0 mm 2 mps 759 mmHg 73%
    21:00 +15°C° 0 mm 2 mps 759 mmHg 76%
    22:00 +15°C° 0 mm 2 mps 759 mmHg 77%
    23:00 +14°C° 0 mm 2 mps 759 mmHg 78%

    27 October, Sunday

    Time Temperature Precipitation Wind Pressure Humidity
    00:00 +14°C° 0 mm 2 mps 759 mmHg 80%
    01:00 +13°C° 0 mm 2 mps 759 mmHg 78%
    02:00 +13°C° 0 mm 2 mps 759 mmHg 76%
    03:00 +12°C° 0 mm 2 mps 759 mmHg 74%
    04:00 +12°C° 0 mm 2 mps 759 mmHg 71%
    05:00 +12°C° 0 mm 2 mps 760 mmHg 69%
    06:00 +10°C° 0 mm 2 mps 760 mmHg 66%
    07:00 +12°C° 0 mm 3 mps 760 mmHg 61%
    08:00 +13°C° 0 mm 3 mps 760 mmHg 56%
    09:00 +14°C° 0 mm 3 mps 760 mmHg 51%
    10:00 +17°C° 0 mm 3 mps 760 mmHg 47%
    11:00 +18°C° 0 mm 3 mps 760 mmHg 43%
    12:00 +20°C° 0 mm 3 mps 759 mmHg 39%
    13:00 +21°C° 0 mm 3 mps 759 mmHg 38%
    14:00 +21°C° 0 mm 3 mps 759 mmHg 37%
    15:00 +21°C° 0 mm 3 mps 758 mmHg 36%
    16:00 +19°C° 0 mm 3 mps 758 mmHg 40%
    17:00 +18°C° 0 mm 3 mps 758 mmHg 45%
    18:00 +16°C° 0 mm 3 mps 758 mmHg 49%
    19:00 +16°C° 0 mm 3 mps 758 mmHg 49%
    20:00 +14°C° 0 mm 3 mps 758 mmHg 49%
    21:00 +14°C° 0 mm 3 mps 758 mmHg 49%
    22:00 +13°C° 0 mm 3 mps 757 mmHg 51%
    23:00 +13°C° 0 mm 3 mps 757 mmHg 53%
    Show more